Flag for Germany Weather past 2 weeks in Korschenbroich, North Rhine-Westphalia, Germany

Now
70 °F

Clear.


Feels Like: 70 °F
Forecast: 65 / 90 °F
Wind: 10 mph from Northeast

Location: Duesseldorf

Current Time: Jul 1, 2015 at 12:25:53 AM

Latest Report: Jun 30, 2015 at 11:50 PM


Visibility: 10 mi

Pressure: 30.09 "Hg

Humidity: 53%

Dew point: 52 °F

Location of KorschenbroichLocation

Historic Weather in Korschenbroich — Graph

°F

Korschenbroich temperature yesterday

Maximum temperature yesterday: 84 °F (at 4:50 PM)
Minimum temperature yesterday: 55 °F (at 4:20 AM)
Average temperature yesterday: 70 °F

Past Weeks' High & Low Weather Summary

 TemperatureHumidityPressure
High84 °F (Jun 30, 4:50 PM)100% (Jun 18, 5:50 AM)30.30 "Hg (Jun 18, 5:50 AM)
Low43 °F (Jun 17, 3:50 AM)29% (Jun 30, 4:50 PM)29.71 "Hg (Jun 22, 5:50 PM)
Average62 °F69%30.08 "Hg
* Reported Jun 15 10:20 PM — Jun 30 10:50 PM, Korschenbroich, Weather by CustomWeather, © 2015

Note: Actual official high and low records may vary slightly from our data, if they occured in-between our weather recording intervals... More about our weather records

Advertising

Korschenbroich weather history for previous 24 hours

 ConditionsComfort  
Time TempWeatherWind HumidityBarometerVisibility
10:50 PM
Tue, Jun 30
73 °FSunny.8 mph47%30.09 "Hg10 mi
10:20 PM73 °FSunny.8 mph50%30.09 "Hg10 mi
9:50 PM75 °FSunny.10 mph47%30.09 "Hg10 mi
9:20 PM79 °FSunny.9 mph39%30.09 "Hg10 mi
8:50 PM79 °FSunny.10 mph37%30.09 "Hg10 mi
8:20 PM81 °FSunny.10 mph34%30.09 "Hg10 mi
7:50 PM81 °FSunny.12 mph37%30.09 "Hg10 mi
6:50 PM82 °FSunny.10 mph35%30.09 "Hg10 mi
6:20 PM84 °FSunny.8 mph31%30.09 "Hg10 mi
5:50 PM84 °FSunny.3 mph31%30.09 "Hg10 mi
4:50 PM84 °FSunny.3 mph29%30.12 "Hg10 mi
4:20 PM82 °FPassing clouds.5 mph30%30.12 "HgN/A
3:50 PM82 °FSunny.6 mph30%30.12 "Hg10 mi
2:50 PM81 °FSunny.1 mph32%30.15 "Hg10 mi
2:20 PM81 °FSunny.2 mph37%30.15 "Hg10 mi
1:50 PM79 °FSunny.3 mph37%30.15 "Hg10 mi
1:20 PM79 °FSunny.3 mph37%30.15 "Hg10 mi
12:50 PM79 °FSunny.3 mph37%30.15 "Hg10 mi
12:20 PM77 °FSunny.2 mph51%30.18 "Hg10 mi
11:50 AM75 °FPassing clouds.5 mph50%30.18 "HgN/A
11:20 AM75 °FPassing clouds.6 mph54%30.18 "HgN/A
10:50 AM73 °FPassing clouds.3 mph57%30.18 "HgN/A
10:20 AM73 °FSunny.3 mph57%30.18 "Hg10 mi
9:50 AM72 °FSunny.3 mph61%30.18 "Hg10 mi
9:20 AM70 °FSunny.1 mph64%30.18 "Hg10 mi
8:50 AM68 °FSunny.2 mph69%30.18 "Hg10 mi
8:20 AM66 °FSunny.3 mph73%30.18 "Hg10 mi
7:50 AM64 °FSunny.5 mph83%30.18 "Hg10 mi
7:20 AM63 °FSunny.3 mph88%30.18 "Hg10 mi
6:50 AM59 °FSunny.3 mph88%30.18 "Hg10 mi
6:20 AM55 °FFog.2 mph94%30.18 "HgN/A
5:50 AM55 °FFog.2 mph94%30.18 "HgN/A
5:20 AM55 °FFog.2 mph88%30.18 "HgN/A
4:50 AM55 °FFog.2 mph94%30.15 "HgN/A
4:20 AM55 °FClear.1 mph88%30.18 "Hg10 mi
3:50 AM57 °FClear.1 mph88%30.18 "Hg10 mi
3:20 AM57 °FClear.2 mph88%30.18 "Hg10 mi
2:50 AM59 °FClear.1 mph82%30.18 "Hg10 mi
2:20 AM59 °FClear.1 mph82%30.18 "Hg10 mi
1:50 AM61 °FClear.2 mph83%30.18 "Hg10 mi
1:20 AM61 °FClear.1 mph77%30.18 "Hg10 mi
12:50 AM61 °FClear.2 mph83%30.18 "Hg10 mi
12:20 AM63 °FClear.1 mph73%30.18 "Hg10 mi
Weather by CustomWeather, © 2015

See weather overviewHow to use our weather pages